DW5595 Weather Reports


time (UTC)temp
C
wind
direction
speed
KPH
gust
KPH
rain 1hr
cm
rain 24hr
cm
rain mn
cm
humidity
%
barometer
mb
20260906191526 20 148 0.0 0.0 0.89 0.94 0.94 92 1013.8
20260906190023 21 204 0.0 1.6 0.74 0.79 0.79 87 1014.2
20260906184527 26 10 14.5 32.2 0.00 0.05 0.05 73 1014.5
20260906183039 27 340 0.0 8.0 0.00 0.05 0.05 69 1013.6
20260906181541 28 5 0.0 8.0 0.00 0.05 0.05 65 1013.6
20260906180029 28 18 6.4 16.1 0.00 0.13 0.05 64 1013.6
20260906174530 27 175 0.0 12.9 0.00 0.13 0.05 68 1013.8
20260906173026 27 352 4.8 14.5 0.00 0.13 0.05 69 1013.6
20260906171520 27 63 1.6 4.8 0.00 0.13 0.05 69 1013.7
20260906170016 27 154 0.0 6.4 0.00 0.13 0.05 71 1013.9
20260906164539 27 35 0.0 8.0 0.00 0.13 0.05 69 1014.0
20260906163035 27 29 0.0 6.4 0.00 0.13 0.05 70 1014.2
20260906161508 26 350 1.6 4.8 0.00 0.13 0.05 75 1014.2
20260906160003 25 9 0.0 6.4 0.03 0.13 0.05 80 1014.6
20260906154505 23 290 0.0 0.0 0.03 0.13 0.05 88 1014.7
20260906153038 23 251 0.0 0.0 0.03 0.13 0.05 90 1014.9
20260906151520 23 290 1.6 9.7 0.05 0.13 0.05 93 1014.8
20260906150015 22 222 0.0 0.0 0.03 0.10 0.03 94 1014.9
20260906144514 22 350 0.0 0.0 0.03 0.10 0.03 92 1015.3
20260906143012 22 90 0.0 17.7 0.03 0.10 0.03 92 1015.1
20260906141519 22 5 8.0 14.5 0.00 0.08 0.00 91 1015.5
20260906140029 22 14 0.0 3.2 0.00 0.08 0.00 90 1014.7
20260906134527 23 213 0.0 6.4 0.00 0.08 0.00 90 1014.5
20260906133018 23 22 3.2 11.3 0.00 0.08 0.00 90 1014.4
20260906131520 22 34 0.0 3.2 0.00 0.08 0.00 91 1014.3
20260906130016 21 10 0.0 3.2 0.00 0.08 0.00 95 1014.2
20260906124510 21 123 0.0 0.0 0.00 0.08 0.00 96 1013.8
20260906123008 20 123 0.0 1.6 0.00 0.08 0.00 97 1013.9
20260906121505 20 123 0.0 0.0 0.00 0.08 0.00 97 1013.4
20260906120025 19 123 0.0 0.0 0.00 0.08 0.00 97 1013.1
20260906114532 19 131 0.0 0.0 0.00 0.08 0.00 96 1013.1
20260906113018 19 131 0.0 0.0 0.00 0.08 0.00 97 1013.0
20260906111519 18 131 0.0 4.8 0.00 0.08 0.00 96 1013.0
20260906110012 19 239 0.0 0.0 0.00 0.08 0.00 96 1012.9
20260906104512 19 278 0.0 0.0 0.00 0.08 0.00 96 1012.7
20260906103042 19 278 0.0 0.0 0.00 0.08 0.00 96 1012.7
20260906101529 19 277 0.0 0.0 0.00 0.08 0.00 96 1012.5
20260906100029 19 157 0.0 0.0 0.00 0.08 0.00 96 1012.5
20260906094523 19 157 0.0 0.0 0.00 0.08 0.00 96 1012.6
20260906093019 19 157 0.0 0.0 0.00 0.08 0.00 96 1012.4
20260906091517 19 157 0.0 0.0 0.00 0.08 0.00 96 1012.2
20260906090012 19 157 0.0 0.0 0.00 0.08 0.00 96 1012.0
20260906084530 19 163 0.0 0.0 0.00 0.08 0.00 96 1011.7
20260906083037 20 163 0.0 0.0 0.00 0.08 0.00 96 1011.8
20260906081527 20 169 0.0 0.0 0.00 0.08 0.00 96 1011.9
20260906080028 20 180 0.0 0.0 0.00 0.08 0.00 96 1011.9
20260906074518 20 180 0.0 0.0 0.00 0.08 0.00 96 1011.9
20260906073017 20 180 0.0 0.0 0.00 0.08 0.00 96 1011.7
20260906071513 20 180 0.0 3.2 0.00 0.08 0.00 96 1011.7
20260906070032 20 180 0.0 0.0 0.00 0.08 0.00 96 1011.7
20260906064534 20 180 0.0 0.0 0.00 0.08 0.00 96 1011.8
20260906063031 20 180 0.0 0.0 0.00 0.08 0.00 96 1012.3
20260906061529 20 180 0.0 1.6 0.00 0.08 0.00 96 1012.4
20260906060023 20 180 0.0 0.0 0.00 0.08 0.00 96 1012.5
20260906054528 20 154 0.0 0.0 0.00 0.08 0.00 96 1012.6
20260906053036 20 92 0.0 3.2 0.00 0.08 0.00 95 1012.6
20260906051531 20 153 0.0 0.0 0.00 0.08 0.00 96 1012.9
20260906050007 20 153 0.0 0.0 0.00 0.08 0.00 95 1013.1
20260906044508 20 153 0.0 0.0 0.00 0.08 0.00 95 1013.2
20260906043008 20 153 0.0 0.0 0.00 0.08 0.00 95 1013.0
20260906041504 20 153 0.0 0.0 0.00 0.08 0.00 95 1013.3
20260906040023 21 153 0.0 0.0 0.00 0.08 0.00 95 1013.5
20260906034517 21 153 0.0 0.0 0.00 0.08 0.08 95 1013.4
20260906033013 21 153 0.0 0.0 0.00 0.08 0.08 95 1013.4
20260906031510 21 153 0.0 0.0 0.00 0.08 0.08 95 1013.3
20260906030006 21 153 0.0 0.0 0.00 0.08 0.08 95 1013.4
20260906024503 21 153 0.0 0.0 0.00 0.08 0.08 94 1013.2
20260906023025 21 153 0.0 0.0 0.00 0.08 0.08 94 1013.0
20260906021535 21 167 0.0 0.0 0.00 0.08 0.08 94 1013.0
20260906020020 22 167 0.0 0.0 0.00 0.08 0.08 94 1013.1
20260906014519 22 167 0.0 0.0 0.00 0.08 0.08 94 1013.0
20260906013026 22 167 0.0 0.0 0.00 0.08 0.08 93 1012.8
20260906011510 22 167 0.0 0.0 0.00 0.08 0.08 92 1012.6
20260906010004 23 167 0.0 0.0 0.00 0.08 0.08 92 1012.4
20260906004527 23 167 0.0 0.0 0.00 0.08 0.08 91 1012.3
20260906003025 23 167 0.0 0.0 0.00 0.08 0.08 90 1012.3
20260906001521 24 167 0.0 0.0 0.00 0.08 0.08 89 1012.1
20260906000022 25 167 0.0 0.0 0.00 0.08 0.08 87 1011.9
20260905234512 25 167 0.0 1.6 0.00 0.08 0.08 87 1011.8
20260905233017 26 142 0.0 0.0 0.00 0.08 0.08 83 1011.7
20260905231506 26 142 0.0 0.0 0.00 0.08 0.08 81 1011.6
20260905230029 26 142 0.0 1.6 0.00 0.08 0.08 78 1011.7
20260905224533 27 360 0.0 0.0 0.00 0.08 0.08 76 1011.5
20260905223033 27 360 0.0 0.0 0.00 0.08 0.08 74 1011.6
20260905221517 28 360 0.0 1.6 0.00 0.08 0.08 72 1011.6
20260905220012 28 5 0.0 4.8 0.00 0.08 0.08 70 1011.6
20260905214510 27 11 0.0 3.2 0.00 0.08 0.08 75 1012.0
20260905213008 27 15 1.6 4.8 0.00 0.08 0.08 75 1012.4
20260905211541 26 23 1.6 4.8 0.00 0.08 0.08 77 1012.1
20260905210029 25 20 0.0 3.2 0.00 0.08 0.08 83 1012.1
20260905204524 24 313 0.0 3.2 0.00 0.08 0.08 84 1012.3
20260905203034 22 123 0.0 3.2 0.00 0.08 0.08 90 1012.7
20260905201519 22 154 0.0 4.8 0.00 0.08 0.08 88 1012.6
20260905200035 22 221 0.0 0.0 0.00 0.08 0.08 90 1012.8
20260905194536 22 221 0.0 1.6 0.00 0.08 0.08 88 1013.1
20260905193032 22 164 1.6 6.4 0.00 0.08 0.08 88 1012.9